Voltar ao catálogo

METEOR 2-15 DEB

LostPO
NORAD 28975·DEBRIS·🇷🇺 Russia

Lançado Jan 5, 1987 de Plesetsk Cosmodrome

Loading…

Próximas Passagens (próximas 24 horas)

TLE

ObsoletoSource: Space-Track

Época: Dec 16, 2024, 00:48 UTC

1 28975U 87001C   24351.03349442  .00007438  00000-0  45603-2 0  9993
2 28975  82.4498 103.0911 0008233  53.0667 307.1258 14.05593605586278

Acompanhe METEOR 2-15 DEB em tempo real com AllMySat

Download on the App Store